User: anonymous   Login
Location: Unspecified
(0.0000°N, 0.0000°E)
Time: 22:19:45
(UTC+00:00)
Language:

AO-7 - Orbit

View from above orbital plane
View from above orbital plane
View from above satellite
View from above satellite

Ground track
Ground track

The orbit data is extracted from the following two-line orbital elements,

1 07530U 74089B   17326.88344359 -.00000036  00000-0  50199-4 0  9994
2 07530 101.6554 292.5702 0012339  15.9146  39.0812 12.53629884968745
Epoch (UTC): 22 November 2017 21:12:09
Eccentricity: 0.0012339
inclination: 101.6554°
perigee height: 1439 km
apogee height: 1459 km
right ascension of ascending node: 292.5702°
argument of perigee: 15.9146°
revolutions per day: 12.53629884
mean anomaly at epoch: 39.0812°
orbit number at epoch: 96874

The dashed part of the orbit path shows where the satellite is in the earth's shadow,  

DLR